Weather in Medvedi

Russia / Bryansk Oblast     53°10′58″N   31°41′11″E
temp.,
°C
wind,
m/s
gust,
m/s
humid.,
%
clouds,
%
prec.,
mm/h
press.,
hPa
HPBL,
m
8 march, mon
mon800:00−3wsw51290100 0.1 1004398
03:00−5w4119390 0.1 1004276
06:00−6w410946 0.0 1005275
09:00−6wnw5109434 0.0 1006538
12:00−3wnw578694 0.1 1007900
15:00−2nw467896 0.8 10081082
18:00−5nnw498487 0.3 1010276
21:00−9nnw349556 0.3 101263
9 march, tue
tue900:00−10nnw489376 0.0 1014155
03:00−12nnw469470 0.0 1016123
06:00−14nnw369513 0.0 1017105
09:00−12nnw47927 0.0 1020268
12:00−8nnw47800 0.0 1020788
15:00−6nw468050 0.1 10211031
18:00−7nw368997 0.1 1022240
21:00−11nw238882 0.1 102421
10 march, wed
wed1000:00−12nw12880 0.0 102521
03:00−12wsw228713 0.0 102521
06:00−11sw369079 0.0 1025135
09:00−8wsw5108890 0.0 1025376
12:00−4w588395 0.0 1026685
15:00−3wnw579298 0.4 1026693
18:00−7ene6995100 0.9 1026375
21:00−11ene489499 1.1 1029275
11 march, thu
thu1100:00−14e479391 0.0 1031163
03:00−17e379252 0.0 1032152
06:00−19ese368669 0.0 1032131
09:00−17ese478251 0.0 1033221
12:00−12se46830 0.0 1032318
15:00−8se57850 0.0 1030427
18:00−9se48881 0.0 1028314
21:00−13sse5109313 0.0 1028254
12 march, fri
fri1200:00−12sse61295100 0.0 1026298
03:00−10sse71493100 0.0 1023378
06:00−7sse81785100 0.0 1020576
09:00−5s101893100 0.3 1016859
12:00−3s111995100 2.4 10131104
15:00−1ssw101696100 5.4 1011957
18:000ssw91598100 1.3 1010691
21:00+1sw61199100 2.8 1010384